| time (UTC) | temp F | wind direction | speed knots | gust knots | rain 1hr in | rain 24hr in | rain mn in | humidity % | barometer mb |
| 20260505224003 | 91 | 166 | 1.7 | 4.3 | 0.00 | 0.00 | 0.00 | 56 | 1001.4 |
| 20260505222004 | 91 | 156 | 1.7 | 4.3 | 0.00 | 0.00 | 0.00 | 54 | 1001.2 |
| 20260505221003 | 91 | 238 | 2.6 | 6.1 | 0.00 | 0.00 | 0.00 | 53 | 1001.2 |
| 20260505220003 | 92 | 218 | 2.6 | 6.1 | 0.00 | 0.00 | 0.00 | 50 | 1001.2 |
| 20260505215004 | 92 | 159 | 0.9 | 4.3 | 0.00 | 0.00 | 0.00 | 50 | 1001.2 |
| 20260505214003 | 91 | 229 | 1.7 | 6.1 | 0.00 | 0.00 | 0.00 | 50 | 1001.4 |
| 20260505213003 | 91 | 220 | 1.7 | 5.2 | 0.00 | 0.00 | 0.00 | 53 | 1001.4 |
| 20260505212004 | 90 | 211 | 2.6 | 5.2 | 0.00 | 0.00 | 0.00 | 53 | 1001.4 |
| 20260505211003 | 90 | 224 | 4.3 | 7.0 | 0.00 | 0.00 | 0.00 | 52 | 1002.2 |
| 20260505205003 | 90 | 208 | 2.6 | 5.2 | 0.00 | 0.00 | 0.00 | 52 | 1002.2 |
| 20260505204003 | 89 | 212 | 0.9 | 7.0 | 0.00 | 0.00 | 0.00 | 56 | 1002.2 |
| 20260505203003 | 89 | 202 | 2.6 | 7.0 | 0.00 | 0.00 | 0.00 | 55 | 1002.2 |
| 20260505201003 | 89 | 190 | 2.6 | 7.8 | 0.00 | 0.00 | 0.00 | 56 | 1002.3 |
| 20260505200004 | 89 | 222 | 5.2 | 7.8 | 0.00 | 0.00 | 0.00 | 54 | 1002.3 |
| 20260505195003 | 89 | 223 | 1.7 | 10.4 | 0.00 | 0.00 | 0.00 | 58 | 1002.3 |
| 20260505193003 | 87 | 154 | 4.3 | 8.7 | 0.00 | 0.00 | 0.00 | 61 | 1002.5 |
| 20260505192004 | 87 | 179 | 5.2 | 8.7 | 0.00 | 0.00 | 0.00 | 61 | 1002.9 |
| 20260505191003 | 87 | 165 | 3.5 | 10.4 | 0.00 | 0.00 | 0.00 | 62 | 1002.9 |
| 20260505190004 | 86 | 183 | 5.2 | 13.0 | 0.00 | 0.00 | 0.00 | 62 | 1002.9 |
| 20260505185004 | 86 | 214 | 4.3 | 8.7 | 0.00 | 0.00 | 0.00 | 63 | 1002.9 |
| 20260505184004 | 85 | 191 | 4.3 | 12.2 | 0.00 | 0.00 | 0.00 | 63 | 1002.9 |
| 20260505182004 | 85 | 234 | 4.3 | 10.4 | 0.00 | 0.00 | 0.00 | 63 | 1002.9 |
| 20260505181004 | 85 | 200 | 2.6 | 10.4 | 0.00 | 0.00 | 0.00 | 66 | 1002.9 |
| 20260505180003 | 84 | 161 | 4.3 | 7.8 | 0.00 | 0.00 | 0.00 | 66 | 1003.0 |
| 20260505175004 | 84 | 211 | 5.2 | 10.4 | 0.00 | 0.00 | 0.00 | 66 | 1003.0 |
| 20260505174003 | 83 | 201 | 4.3 | 13.9 | 0.00 | 0.00 | 0.00 | 68 | 1003.3 |
| 20260505172003 | 82 | 175 | 4.3 | 7.8 | 0.00 | 0.00 | 0.00 | 68 | 1003.3 |
| 20260505171004 | 82 | 213 | 2.6 | 10.4 | 0.00 | 0.00 | 0.00 | 69 | 1003.3 |
| 20260505170003 | 82 | 194 | 2.6 | 10.4 | 0.00 | 0.00 | 0.00 | 69 | 1002.8 |
| 20260505165004 | 82 | 183 | 5.2 | 17.4 | 0.00 | 0.00 | 0.00 | 67 | 1002.8 |
| 20260505164003 | 82 | 215 | 4.3 | 10.4 | 0.00 | 0.00 | 0.00 | 70 | 1002.8 |
| 20260505163004 | 81 | 172 | 4.3 | 10.4 | 0.00 | 0.00 | 0.00 | 70 | 1002.8 |
| 20260505162003 | 80 | 191 | 4.3 | 10.4 | 0.00 | 0.00 | 0.00 | 72 | 1002.8 |
| 20260505161003 | 80 | 178 | 4.3 | 8.7 | 0.00 | 0.00 | 0.00 | 73 | 1002.8 |
| 20260505153004 | 77 | 172 | 5.2 | 10.4 | 0.00 | 0.00 | 0.00 | 76 | 1003.1 |
| 20260505152004 | 78 | 190 | 4.3 | 10.4 | 0.00 | 0.00 | 0.00 | 76 | 1002.9 |
| 20260505125004 | 70 | 255 | 2.6 | 10.4 | 0.00 | 0.00 | 0.00 | 88 | 1002.1 |
| 20260505124003 | 70 | 195 | 3.5 | 8.7 | 0.00 | 0.00 | 0.00 | 88 | 1002.1 |
| 20260505123003 | 70 | 195 | 4.3 | 8.7 | 0.00 | 0.00 | 0.00 | 88 | 1002.1 |
| 20260505122003 | 70 | 209 | 2.6 | 7.8 | 0.00 | 0.00 | 0.00 | 89 | 1002.1 |
| 20260505121004 | 70 | 210 | 2.6 | 8.7 | 0.00 | 0.00 | 0.00 | 89 | 1001.8 |
| 20260505120004 | 69 | 211 | 3.5 | 8.7 | 0.00 | 0.00 | 0.00 | 89 | 1001.8 |
| 20260505115003 | 69 | 168 | 2.6 | 10.4 | 0.00 | 0.00 | 0.00 | 89 | 1001.8 |
| 20260505114004 | 69 | 241 | 1.7 | 10.4 | 0.00 | 0.00 | 0.00 | 89 | 1001.8 |
| 20260505113003 | 69 | 205 | 4.3 | 10.4 | 0.00 | 0.00 | 0.00 | 89 | 1001.8 |
| 20260505112003 | 70 | 185 | 2.6 | 8.7 | 0.00 | 0.00 | 0.00 | 88 | 1001.8 |
| 20260505111003 | 70 | 184 | 5.2 | 10.4 | 0.00 | 0.00 | 0.00 | 89 | 1001.6 |
| 20260505101003 | 70 | 163 | 4.3 | 8.7 | 0.00 | 0.00 | 0.00 | 87 | 1001.7 |
| 20260505100004 | 71 | 214 | 4.3 | 8.7 | 0.00 | 0.00 | 0.00 | 86 | 1001.7 |
| 20260505095003 | 71 | 170 | 4.3 | 10.4 | 0.00 | 0.00 | 0.00 | 86 | 1001.7 |
| 20260505094003 | 71 | 196 | 2.6 | 12.2 | 0.00 | 0.00 | 0.00 | 86 | 1001.9 |
| 20260505093004 | 71 | 156 | 4.3 | 8.7 | 0.00 | 0.00 | 0.00 | 86 | 1002.2 |
| 20260505091003 | 71 | 196 | 4.3 | 11.3 | 0.00 | 0.00 | 0.00 | 86 | 1002.2 |
| 20260505090004 | 71 | 194 | 4.3 | 10.4 | 0.00 | 0.00 | 0.00 | 86 | 1002.2 |
| 20260505083004 | 71 | 171 | 3.5 | 10.4 | 0.00 | 0.00 | 0.00 | 85 | 1002.1 |
| 20260505082003 | 71 | 192 | 3.5 | 10.4 | 0.00 | 0.00 | 0.00 | 85 | 1002.1 |
| 20260505081003 | 71 | 176 | 4.3 | 10.4 | 0.00 | 0.00 | 0.00 | 85 | 1002.2 |
| 20260505080004 | 71 | 170 | 2.6 | 10.4 | 0.00 | 0.00 | 0.00 | 84 | 1002.5 |
| 20260505075003 | 71 | 202 | 3.5 | 8.7 | 0.00 | 0.00 | 0.00 | 84 | 1002.7 |
| 20260505074004 | 71 | 179 | 4.3 | 7.8 | 0.00 | 0.00 | 0.00 | 83 | 1002.7 |
| 20260505070004 | 72 | 174 | 1.7 | 8.7 | 0.00 | 0.00 | 0.00 | 81 | 1003.4 |
| 20260505065003 | 72 | 195 | 2.6 | 7.8 | 0.00 | 0.00 | 0.00 | 81 | 1003.3 |
| 20260505064003 | 72 | 145 | 3.5 | 7.8 | 0.00 | 0.00 | 0.00 | 80 | 1003.3 |
| 20260505063004 | 72 | 247 | 4.3 | 8.7 | 0.00 | 0.00 | 0.00 | 80 | 1003.3 |
| 20260505061004 | 72 | 174 | 2.6 | 7.8 | 0.00 | 0.00 | 0.00 | 78 | 1003.3 |
| 20260505060004 | 73 | 169 | 1.7 | 8.7 | 0.00 | 0.00 | 0.00 | 77 | 1003.3 |
| 20260505055004 | 73 | 194 | 4.3 | 10.4 | 0.00 | 0.00 | 0.00 | 76 | 1003.3 |
| 20260505054003 | 73 | 170 | 4.3 | 7.8 | 0.00 | 0.00 | 0.00 | 75 | 1003.3 |
| 20260505053003 | 74 | 181 | 4.3 | 7.8 | 0.00 | 0.00 | 0.00 | 75 | 1003.7 |
| 20260505052003 | 74 | 150 | 3.5 | 8.7 | 0.00 | 0.00 | 0.00 | 74 | 1003.7 |
| 20260505051004 | 74 | 165 | 2.6 | 7.8 | 0.00 | 0.00 | 0.00 | 73 | 1003.8 |
| 20260505041003 | 74 | 172 | 2.6 | 10.4 | 0.00 | 0.00 | 0.00 | 73 | 1004.0 |
| 20260505040004 | 74 | 199 | 4.3 | 7.8 | 0.00 | 0.00 | 0.00 | 73 | 1004.0 |
| 20260505035003 | 74 | 174 | 2.6 | 8.7 | 0.00 | 0.00 | 0.00 | 73 | 1004.0 |
| 20260505034004 | 74 | 134 | 4.3 | 10.4 | 0.00 | 0.00 | 0.00 | 73 | 1003.8 |
| 20260505032003 | 74 | 157 | 4.3 | 10.4 | 0.00 | 0.00 | 0.00 | 73 | 1003.9 |
| 20260505031004 | 74 | 175 | 1.7 | 7.8 | 0.00 | 0.00 | 0.00 | 73 | 1003.9 |
| 20260505025003 | 74 | 153 | 2.6 | 7.8 | 0.00 | 0.00 | 0.00 | 73 | 1003.5 |
| 20260505024003 | 74 | 131 | 2.6 | 6.1 | 0.00 | 0.00 | 0.00 | 72 | 1003.5 |
| 20260505023004 | 75 | 131 | 3.5 | 7.8 | 0.00 | 0.00 | 0.00 | 72 | 1003.5 |
| 20260505022004 | 75 | 112 | 2.6 | 7.0 | 0.00 | 0.00 | 0.00 | 71 | 1003.5 |
| 20260505021003 | 75 | 136 | 2.6 | 7.0 | 0.00 | 0.00 | 0.00 | 70 | 1003.6 |
| 20260505020003 | 75 | 168 | 1.7 | 7.0 | 0.00 | 0.00 | 0.00 | 70 | 1003.6 |
| 20260505015004 | 75 | 145 | 2.6 | 7.8 | 0.00 | 0.00 | 0.00 | 70 | 1003.6 |
| 20260505012004 | 76 | 137 | 1.7 | 6.1 | 0.00 | 0.00 | 0.00 | 68 | 1003.9 |
| 20260505011004 | 76 | 163 | 3.5 | 10.4 | 0.00 | 0.00 | 0.00 | 67 | 1003.9 |
| 20260505010004 | 76 | 178 | 2.6 | 8.7 | 0.00 | 0.00 | 0.00 | 67 | 1003.9 |
| 20260505005005 | 77 | 182 | 2.6 | 7.8 | 0.00 | 0.00 | 0.00 | 66 | 1003.9 |
| 20260505004004 | 77 | 176 | 4.3 | 12.2 | 0.00 | 0.00 | 0.00 | 66 | 1003.9 |
| 20260505003003 | 77 | 131 | 4.3 | 7.8 | 0.00 | 0.00 | 0.00 | 66 | 1003.9 |
| 20260505002003 | 77 | 166 | 2.6 | 10.4 | 0.00 | 0.00 | 0.00 | 65 | 1003.9 |
| 20260505001003 | 78 | 148 | 2.6 | 11.3 | 0.00 | 0.00 | 0.00 | 65 | 1003.9 |
| 20260505000004 | 78 | 187 | 5.2 | 10.4 | 0.00 | 0.00 | 0.00 | 64 | 1004.1 |
| 20260504234004 | 79 | 132 | 2.6 | 10.4 | 0.00 | 0.00 | 0.00 | 63 | 1004.2 |
| 20260504232003 | 79 | 130 | 3.5 | 11.3 | 0.00 | 0.00 | 0.00 | 63 | 1004.3 |
| 20260504231004 | 79 | 179 | 1.7 | 10.4 | 0.00 | 0.00 | 0.00 | 62 | 1004.4 |
| 20260504230004 | 79 | 164 | 4.3 | 10.4 | 0.00 | 0.00 | 0.00 | 61 | 1004.4 |
| 20260504225004 | 80 | 186 | 4.3 | 10.4 | 0.00 | 0.00 | 0.00 | 60 | 1005.0 |